Torna al catalogo

TITAN 3C TRANSTAGE DEB

LostHEO
NORAD 28815·DEBRIS·🇺🇸 United States

Lanciato Dec 21, 1965 da Cape Canaveral Space Force Station

Loading…

Prossimi Passaggi (prossime 24 ore)

TLE

ObsoletoSource: Space-Track

Epoca: Feb 2, 2023, 13:22 UTC

1 28815U 65108CC  23033.55759642  .00000123  00000-0  39195-2 0  9993
2 28815  25.8575 192.9442 6726573 227.1945  49.0706  2.60651140188519

Traccia TITAN 3C TRANSTAGE DEB in tempo reale con AllMySat

Download on the App Store